Погода в Красновосточном

Россия / Карачаево-Черкесская Республика     43°57′26″N   42°17′49″E
темп.,
°C
ветер,
м/с
пор.,
м/с
влажн.,
%
обл.,
%
осадки,
мм/ч
давл.,
гПа
погр.,
м
13 июня, вс
вс1300:00+11юз329089 1.0 101425
03:00+12юз2291100 1.6 101427
06:00+13зюз2292100 0.4 101361
09:00+13сз2393100 0.8 1014340
12:00+15ссз228799 1.1 1013602
15:00+16с2285100 2.8 1013533
18:00+15сз229120 2.9 1013119
21:00+12юз229289 6.4 101526
14 июня, пн
пн1400:00+11ююз228856 0.0 101414
03:00+10ю22880 0.0 101413
06:00+13ю22870 0.0 101343
09:00+17всв23772 0.0 1012695
12:00+19всв557360 0.1 10111085
15:00+20всв657554 0.1 10111031
18:00+18всв358713 0.3 1011444
21:00+14юв229569 0.3 101122
15 июня, вт
вт1500:00+13ю2288100 0.0 101012
03:00+13ю2278100 0.1 100914
06:00+14ю227894 0.0 100920
09:00+19с21702 0.0 1009441
12:00+20сз33779 0.2 1010834
15:00+20ссз327750 0.6 1010880
18:00+19ссв228635 0.4 1011446
21:00+14юв119616 0.4 101211
16 июня, ср
ср1600:00+15ю119476 0.0 101111
03:00+14юв119128 0.0 101012
06:00+15юз12885 0.0 101058
09:00+18сз228692 0.1 1011646
12:00+15ссз2398100 0.4 1013379
15:00+14сз1199100 0.7 1013343
18:00+14зюз129997 0.1 1013124
21:00+14зюз219869 0.1 101331
17 июня, чт
чт1700:00+14св1199100 0.1 1013109
03:00+14в1199100 0.1 1012149
06:00+14в119998 0.1 101185
09:00+16ссв219796 0.1 1010260
12:00+18ссз2292100 0.5 1010596
15:00+18ссз339498 1.7 1011509
18:00+15зсз4795100 3.3 1014729
21:00+14зюз34966 4.3 1015109